Location: Kumla
(59.1265°N, 15.1401°E)
Time: 09:14:46
(UTC+01:00)

A-11 Canister half - Pass Details

Date: 07 December 2023
Orbit: 1526 x 1682 km, 47.3° (Epoch: 04 March)

Event Time Altitude Azimuth Distance (km) Brightness Sun altitude
Rises 18:23:48 0° 211° (SSW) 4,922 12.2 -23.5°
Reaches altitude 10° 18:27:32 10° 201° (SSW) 3,940 11.4 -23.9°
Maximum altitude 18:35:36 28° 147° (SSE) 2,761 10.0 -25.0°
Enters shadow 18:37:23 27° 131° (SE) 2,828 10.0 -25.2°
